owner,sensor,date,latitude,longitude,vertical_datum,direction_of_sea_water_velocity,sea_water_speed,upward_sea_water_velocity,qcFlag 
TABS,ioos:station:wmo:42044:1,2008-06-01T00:00:00Z,26.1914,-97.0507,2.0,204.0024833,13.00455689,-99999.0,'11111222,11111222,99999999' 
TABS,ioos:station:wmo:42044:1,2008-06-01T00:30:00Z,26.1914,-97.0507,2.0,206.9811175,16.00172491,-99999.0,'11111222,11111222,99999999' 
TABS,ioos:station:wmo:42044:1,2008-06-01T01:00:00Z,26.1914,-97.0507,2.0,209.9932864,16.0031122,-99999.0,'11111222,11111222,99999999' 
TABS,ioos:station:wmo:42044:1,2008-06-01T01:30:00Z,26.1914,-97.0507,2.0,205.991992,16.99943823,-99999.0,'11111222,11111222,99999999' 
TABS,ioos:station:wmo:42044:1,2008-06-01T02:00:00Z,26.1914,-97.0507,2.0,213.0011619,15.00017667,-99999.0,'11111222,11111222,99999999' 
TABS,ioos:station:wmo:42044:1,2008-06-01T02:30:00Z,26.1914,-97.0507,2.0,224.9996843,15.99475539,-99999.0,'11111222,11111222,99999999' 
TABS,ioos:station:wmo:42044:1,2008-06-01T03:00:00Z,26.1914,-97.0507,2.0,230.9874664,15.997181,-99999.0,'11111222,11111222,99999999' 
TABS,ioos:station:wmo:42044:1,2008-06-01T03:30:00Z,26.1914,-97.0507,2.0,238.9838763,17.00066175,-99999.0,'11111222,11111222,99999999' 
TABS,ioos:station:wmo:42044:1,2008-06-01T04:00:00Z,26.1914,-97.0507,2.0,242.0093005,16.00178115,-99999.0,'11111222,11111222,99999999' 
TABS,ioos:station:wmo:42044:1,2008-06-01T04:30:00Z,26.1914,-97.0507,2.0,256.9969406,16.00025312,-99999.0,'11111222,11111222,99999999' 
TABS,ioos:station:wmo:42044:1,2008-06-01T05:00:00Z,26.1914,-97.0507,2.0,257.999204,13.99586367,-99999.0,'11111222,11111222,99999999' 
TABS,ioos:station:wmo:42044:1,2008-06-01T05:30:00Z,26.1914,-97.0507,2.0,270.0004209,14.0,-99999.0,'11111222,11111222,99999999' 
TABS,ioos:station:wmo:42044:1,2008-06-01T06:00:00Z,26.1914,-97.0507,2.0,274.9985063,14.00324605,-99999.0,'11111222,11111222,99999999' 
TABS,ioos:station:wmo:42044:1,2008-06-01T06:30:00Z,26.1914,-97.0507,2.0,285.0010259,15.99506486,-99999.0,'11111222,11111222,99999999' 
TABS,ioos:station:wmo:42044:1,2008-06-01T07:00:00Z,26.1914,-97.0507,2.0,290.994323,16.99838228,-99999.0,'11111222,11111222,99999999' 
TABS,ioos:station:wmo:42044:1,2008-06-01T07:30:00Z,26.1914,-97.0507,2.0,303.0017932,15.00017667,-99999.0,'11111222,11111222,99999999' 
TABS,ioos:station:wmo:42044:1,2008-06-01T08:00:00Z,26.1914,-97.0507,2.0,308.0081357,13.99876066,-99999.0,'11111222,11111222,99999999' 
TABS,ioos:station:wmo:42044:1,2008-06-01T08:30:00Z,26.1914,-97.0507,2.0,320.0051542,11.99584095,-99999.0,'11111222,11111222,99999999' 
TABS,ioos:station:wmo:42044:1,2008-06-01T09:00:00Z,26.1914,-97.0507,2.0,323.0069552,12.99603016,-99999.0,'11111222,11111222,99999999' 
TABS,ioos:station:wmo:42044:1,2008-06-01T09:30:00Z,26.1914,-97.0507,2.0,329.9947773,11.998004,-99999.0,'11111222,11111222,99999999' 
TABS,ioos:station:wmo:42044:1,2008-06-01T10:00:00Z,26.1914,-97.0507,2.0,332.025546,9.998249847,-99999.0,'11133222,11111222,99999999' 
TABS,ioos:station:wmo:42044:1,2008-06-01T10:30:00Z,26.1914,-97.0507,2.0,40.9974567,8.002755775,-99999.0,'11133222,11111222,99999999' 
TABS,ioos:station:wmo:42044:1,2008-06-01T11:00:00Z,26.1914,-97.0507,2.0,14.9915495,8.002362151,-99999.0,'11133222,11111222,99999999' 
TABS,ioos:station:wmo:42044:1,2008-06-01T11:30:00Z,26.1914,-97.0507,2.0,24.00290423,13.00455689,-99999.0,'11111222,11111222,99999999' 
TABS,ioos:station:wmo:42044:1,2008-06-01T12:00:00Z,26.1914,-97.0507,2.0,21.03310144,8.999605547,-99999.0,'11133222,11111222,99999999' 
TABS,ioos:station:wmo:42044:1,2008-06-01T12:30:00Z,26.1914,-97.0507,2.0,29.99370736,8.001556099,-99999.0,'11133222,11111222,99999999' 
TABS,ioos:station:wmo:42044:1,2008-06-01T13:00:00Z,26.1914,-97.0507,2.0,39.04765971,6.000333324,-99999.0,'11133222,11111222,99999999' 
TABS,ioos:station:wmo:42044:1,2008-06-01T13:30:00Z,26.1914,-97.0507,2.0,38.01578205,5.0009999,-99999.0,'11133222,11111222,99999999' 
TABS,ioos:station:wmo:42044:1,2008-06-01T14:00:00Z,26.1914,-97.0507,2.0,52.9964544,5.998016339,-99999.0,'11133222,11111222,99999999' 
TABS,ioos:station:wmo:42044:1,2008-06-01T14:30:00Z,26.1914,-97.0507,2.0,40.9974567,8.002755775,-99999.0,'11133222,11111222,99999999' 
TABS,ioos:station:wmo:42044:1,2008-06-01T15:00:00Z,26.1914,-97.0507,2.0,64.97327111,6.996942189,-99999.0,'11133222,11111222,99999999' 
TABS,ioos:station:wmo:42044:1,2008-06-01T15:30:00Z,26.1914,-97.0507,2.0,57.01396514,6.998071163,-99999.0,'11133222,11111222,99999999' 
TABS,ioos:station:wmo:42044:1,2008-06-01T16:00:00Z,26.1914,-97.0507,2.0,85.98783823,10.00451898,-99999.0,'11111222,11111222,99999999' 
TABS,ioos:station:wmo:42044:1,2008-06-01T16:30:00Z,26.1914,-97.0507,2.0,85.98783823,10.00451898,-99999.0,'11111222,11111222,99999999' 
TABS,ioos:station:wmo:42044:1,2008-06-01T17:00:00Z,26.1914,-97.0507,2.0,85.98492188,10.9969905,-99999.0,'11111222,11111222,99999999' 
TABS,ioos:station:wmo:42044:1,2008-06-01T17:30:00Z,26.1914,-97.0507,2.0,155.9985647,11.99733304,-99999.0,'11111222,11111222,99999999' 
TABS,ioos:station:wmo:42044:1,2008-06-01T18:00:00Z,26.1914,-97.0507,2.0,112.9943704,14.0026069,-99999.0,'11111222,11111222,99999999' 
TABS,ioos:station:wmo:42044:1,2008-06-01T18:30:00Z,26.1914,-97.0507,2.0,124.9952908,14.00149278,-99999.0,'11111222,11111222,99999999' 
TABS,ioos:station:wmo:42044:1,2008-06-01T19:00:00Z,26.1914,-97.0507,2.0,113.0002822,11.00485802,-99999.0,'11111222,11111222,99999999' 
TABS,ioos:station:wmo:42044:1,2008-06-01T19:30:00Z,26.1914,-97.0507,2.0,113.0002822,11.00485802,-99999.0,'11111222,11111222,99999999' 
TABS,ioos:station:wmo:42044:1,2008-06-01T20:00:00Z,26.1914,-97.0507,2.0,131.9823823,8.999805553,-99999.0,'11133222,11111222,99999999' 
TABS,ioos:station:wmo:42044:1,2008-06-01T20:30:00Z,26.1914,-97.0507,2.0,134.9998948,9.998489886,-99999.0,'11133222,11111222,99999999' 
TABS,ioos:station:wmo:42044:1,2008-06-01T21:00:00Z,26.1914,-97.0507,2.0,139.9579245,8.999788886,-99999.0,'11133222,11111222,99999999' 
TABS,ioos:station:wmo:42044:1,2008-06-01T21:30:00Z,26.1914,-97.0507,2.0,155.9985647,11.99733304,-99999.0,'11111222,11111222,99999999' 
TABS,ioos:station:wmo:42044:1,2008-06-01T22:00:00Z,26.1914,-97.0507,2.0,102.0318796,7.00386322,-99999.0,'11133222,11111222,99999999' 
TABS,ioos:station:wmo:42044:1,2008-06-01T22:30:00Z,26.1914,-97.0507,2.0,179.9997895,13.0,-99999.0,'11111222,11111222,99999999' 
TABS,ioos:station:wmo:42044:1,2008-06-01T23:00:00Z,26.1914,-97.0507,2.0,198.0204547,13.99660673,-99999.0,'11111222,11111222,99999999' 
TABS,ioos:station:wmo:42044:1,2008-06-01T23:30:00Z,26.1914,-97.0507,2.0,217.9852615,14.996843,-99999.0,'11111222,11111222,99999999' 
TABS,ioos:station:wmo:42044:1,2008-06-02T00:00:00Z,26.1914,-97.0507,2.0,215.9954731,15.99386132,-99999.0,'11111222,11111222,99999999' 
TABS,ioos:station:wmo:42044:1,2008-06-02T00:30:00Z,26.1914,-97.0507,2.0,230.9874664,15.997181,-99999.0,'11111222,11111222,99999999' 
TABS,ioos:station:wmo:42044:1,2008-06-02T01:00:00Z,26.1914,-97.0507,2.0,233.0030743,18.99404644,-99999.0,'11111222,11111222,99999999' 
TABS,ioos:station:wmo:42044:1,2008-06-02T01:30:00Z,26.1914,-97.0507,2.0,245.997349,19.00322341,-99999.0,'11111222,11111222,99999999' 
TABS,ioos:station:wmo:42044:1,2008-06-02T02:00:00Z,26.1914,-97.0507,2.0,248.0013474,19.99579206,-99999.0,'11111222,11111222,99999999' 
TABS,ioos:station:wmo:42044:1,2008-06-02T02:30:00Z,26.1914,-97.0507,2.0,252.0075683,18.00022222,-99999.0,'11111222,11111222,99999999' 
TABS,ioos:station:wmo:42044:1,2008-06-02T03:00:00Z,26.1914,-97.0507,2.0,257.0090832,20.99738079,-99999.0,'11111222,11111222,99999999' 
TABS,ioos:station:wmo:42044:1,2008-06-02T03:30:00Z,26.1914,-97.0507,2.0,262.9918427,19.99940249,-99999.0,'11111222,11111222,99999999' 
TABS,ioos:station:wmo:42044:1,2008-06-02T04:00:00Z,26.1914,-97.0507,2.0,263.9890091,19.00447579,-99999.0,'11111222,11111222,99999999' 
TABS,ioos:station:wmo:42044:1,2008-06-02T04:30:00Z,26.1914,-97.0507,2.0,273.0101896,19.99758485,-99999.0,'11111222,11111222,99999999' 
TABS,ioos:station:wmo:42044:1,2008-06-02T05:00:00Z,26.1914,-97.0507,2.0,279.0057976,19.99648469,-99999.0,'11111222,11111222,99999999' 
TABS,ioos:station:wmo:42044:1,2008-06-02T05:30:00Z,26.1914,-97.0507,2.0,288.0038917,20.99811896,-99999.0,'11111222,11111222,99999999' 
TABS,ioos:station:wmo:42044:1,2008-06-02T06:00:00Z,26.1914,-97.0507,2.0,289.9974695,20.99584006,-99999.0,'11111222,11111222,99999999' 
TABS,ioos:station:wmo:42044:1,2008-06-02T06:30:00Z,26.1914,-97.0507,2.0,290.9892669,21.99968182,-99999.0,'11111222,11111222,99999999' 
TABS,ioos:station:wmo:42044:1,2008-06-02T07:00:00Z,26.1914,-97.0507,2.0,311.0000108,21.99511082,-99999.0,'11111222,11111222,99999999' 
TABS,ioos:station:wmo:42044:1,2008-06-02T07:30:00Z,26.1914,-97.0507,2.0,315.0003157,21.0010714,-99999.0,'11111222,11111222,99999999' 
TABS,ioos:station:wmo:42044:1,2008-06-02T08:00:00Z,26.1914,-97.0507,2.0,325.9830353,16.99906468,-99999.0,'11111222,11111222,99999999' 
TABS,ioos:station:wmo:42044:1,2008-06-02T08:30:00Z,26.1914,-97.0507,2.0,331.9970795,17.99707198,-99999.0,'11111222,11111222,99999999' 
TABS,ioos:station:wmo:42044:1,2008-06-02T09:00:00Z,26.1914,-97.0507,2.0,342.0081997,18.00022222,-99999.0,'11111222,11111222,99999999' 
TABS,ioos:station:wmo:42044:1,2008-06-02T09:30:00Z,26.1914,-97.0507,2.0,350.9978172,16.99940293,-99999.0,'11111222,11111222,99999999' 
TABS,ioos:station:wmo:42044:1,2008-06-02T10:00:00Z,26.1914,-97.0507,2.0,356.9814075,15.00081664,-99999.0,'11111222,11111222,99999999' 
TABS,ioos:station:wmo:42044:1,2008-06-02T10:30:00Z,26.1914,-97.0507,2.0,13.98295374,12.99506445,-99999.0,'11111222,11111222,99999999' 
TABS,ioos:station:wmo:42044:1,2008-06-02T11:00:00Z,26.1914,-97.0507,2.0,20.00961827,13.00503364,-99999.0,'11111222,11111222,99999999' 
TABS,ioos:station:wmo:42044:1,2008-06-02T11:30:00Z,26.1914,-97.0507,2.0,33.00552071,12.99755362,-99999.0,'11111222,11111222,99999999' 
TABS,ioos:station:wmo:42044:1,2008-06-02T12:00:00Z,26.1914,-97.0507,2.0,35.98186249,11.99944165,-99999.0,'11111222,11111222,99999999' 
TABS,ioos:station:wmo:42044:1,2008-06-02T12:30:00Z,26.1914,-97.0507,2.0,40.97429048,13.99990357,-99999.0,'11111222,11111222,99999999' 
TABS,ioos:station:wmo:42044:1,2008-06-02T13:00:00Z,26.1914,-97.0507,2.0,40.97429048,13.99990357,-99999.0,'11111222,11111222,99999999' 
TABS,ioos:station:wmo:42044:1,2008-06-02T13:30:00Z,26.1914,-97.0507,2.0,51.00152336,13.99966071,-99999.0,'11111222,11111222,99999999' 
TABS,ioos:station:wmo:42044:1,2008-06-02T14:00:00Z,26.1914,-97.0507,2.0,50.98788733,15.997181,-99999.0,'11111222,11111222,99999999' 
TABS,ioos:station:wmo:42044:1,2008-06-02T14:30:00Z,26.1914,-97.0507,2.0,65.00480072,15.99836242,-99999.0,'11111222,11111222,99999999' 
TABS,ioos:station:wmo:42044:1,2008-06-02T15:00:00Z,26.1914,-97.0507,2.0,71.98330325,12.99730741,-99999.0,'11111222,11111222,99999999' 
TABS,ioos:station:wmo:42044:1,2008-06-02T15:30:00Z,26.1914,-97.0507,2.0,62.01572579,13.00001538,-99999.0,'11111222,11111222,99999999' 
TABS,ioos:station:wmo:42044:1,2008-06-02T16:00:00Z,26.1914,-97.0507,2.0,90.0,13.0,-99999.0,'11111222,11111222,99999999' 
TABS,ioos:station:wmo:42044:1,2008-06-02T16:30:00Z,26.1914,-97.0507,2.0,85.98492188,10.9969905,-99999.0,'11111222,11111222,99999999' 
TABS,ioos:station:wmo:42044:1,2008-06-02T17:00:00Z,26.1914,-97.0507,2.0,101.0009114,12.00052082,-99999.0,'11111222,11111222,99999999' 
TABS,ioos:station:wmo:42044:1,2008-06-02T17:30:00Z,26.1914,-97.0507,2.0,108.0000325,9.999409983,-99999.0,'11133222,11111222,99999999' 
TABS,ioos:station:wmo:42044:1,2008-06-02T18:00:00Z,26.1914,-97.0507,2.0,115.9886365,12.00382023,-99999.0,'11111222,11111222,99999999' 
TABS,ioos:station:wmo:42044:1,2008-06-02T18:30:00Z,26.1914,-97.0507,2.0,122.9837608,9.000694418,-99999.0,'11133222,11111222,99999999' 
TABS,ioos:station:wmo:42044:1,2008-06-02T19:00:00Z,26.1914,-97.0507,2.0,140.0142839,11.0022634,-99999.0,'11111222,11111222,99999999' 
TABS,ioos:station:wmo:42044:1,2008-06-02T19:30:00Z,26.1914,-97.0507,2.0,154.9730607,6.996942189,-99999.0,'11133222,11111222,99999999' 
TABS,ioos:station:wmo:42044:1,2008-06-02T20:00:00Z,26.1914,-97.0507,2.0,144.0230034,5.004607877,-99999.0,'11133222,11111222,99999999' 
TABS,ioos:station:wmo:42044:1,2008-06-02T20:30:00Z,26.1914,-97.0507,2.0,207.0774776,3.998249617,-99999.0,'11133222,11111222,99999999' 
TABS,ioos:station:wmo:42044:1,2008-06-02T21:00:00Z,26.1914,-97.0507,2.0,179.9997895,4.0,-99999.0,'11133222,11111222,99999999' 
TABS,ioos:station:wmo:42044:1,2008-06-02T21:30:00Z,26.1914,-97.0507,2.0,179.9997895,3.0,-99999.0,'11133222,11111222,99999999' 
TABS,ioos:station:wmo:42044:1,2008-06-02T22:00:00Z,26.1914,-97.0507,2.0,207.0774776,1.999124809,-99999.0,'11133222,11111222,99999999' 
TABS,ioos:station:wmo:42044:1,2008-06-02T22:30:00Z,26.1914,-97.0507,2.0,257.0049927,4.002499219,-99999.0,'11133222,11111222,99999999' 
TABS,ioos:station:wmo:42044:1,2008-06-02T23:00:00Z,26.1914,-97.0507,2.0,251.9272992,2.997899264,-99999.0,'11133222,11111222,99999999' 
TABS,ioos:station:wmo:42044:1,2008-06-02T23:30:00Z,26.1914,-97.0507,2.0,258.0027078,8.996493761,-99999.0,'11133222,11111222,99999999' 
TABS,ioos:station:wmo:42044:1,2008-06-03T00:00:00Z,26.1914,-97.0507,2.0,260.9998833,10.99536266,-99999.0,'11111222,11111222,99999999' 
TABS,ioos:station:wmo:42044:1,2008-06-03T00:30:00Z,26.1914,-97.0507,2.0,287.0188742,11.0017635,-99999.0,'11111222,11111222,99999999' 
TABS,ioos:station:wmo:42044:1,2008-06-03T01:00:00Z,26.1914,-97.0507,2.0,332.9996189,9.999985,-99999.0,'11133222,11111222,99999999' 
TABS,ioos:station:wmo:42044:1,2008-06-03T01:30:00Z,26.1914,-97.0507,2.0,301.99561,12.00341618,-99999.0,'11111222,11111222,99999999' 
TABS,ioos:station:wmo:42044:1,2008-06-03T02:00:00Z,26.1914,-97.0507,2.0,304.9957117,14.00149278,-99999.0,'11111222,11111222,99999999' 
TABS,ioos:station:wmo:42044:1,2008-06-03T02:30:00Z,26.1914,-97.0507,2.0,311.0156741,6.003707188,-99999.0,'11133222,11111222,99999999' 
TABS,ioos:station:wmo:42044:1,2008-06-03T03:00:00Z,26.1914,-97.0507,2.0,309.0031033,18.00247205,-99999.0,'11111222,11111222,99999999' 
TABS,ioos:station:wmo:42044:1,2008-06-03T03:30:00Z,26.1914,-97.0507,2.0,324.0090308,20.99846899,-99999.0,'11111222,11111222,99999999' 
TABS,ioos:station:wmo:42044:1,2008-06-03T04:00:00Z,26.1914,-97.0507,2.0,320.9911332,21.00263793,-99999.0,'11111222,11111222,99999999' 
TABS,ioos:station:wmo:42044:1,2008-06-03T04:30:00Z,26.1914,-97.0507,2.0,327.0037173,21.99824766,-99999.0,'11111222,11111222,99999999' 
TABS,ioos:station:wmo:42044:1,2008-06-03T05:00:00Z,26.1914,-97.0507,2.0,332.9867741,23.9982166,-99999.0,'11111222,11111222,99999999' 
TABS,ioos:station:wmo:42044:1,2008-06-03T05:30:00Z,26.1914,-97.0507,2.0,332.9987277,27.00354051,-99999.0,'11111222,11111222,99999999' 
TABS,ioos:station:wmo:42044:1,2008-06-03T06:00:00Z,26.1914,-97.0507,2.0,332.9867741,23.9982166,-99999.0,'11111222,11111222,99999999' 
TABS,ioos:station:wmo:42044:1,2008-06-03T06:30:00Z,26.1914,-97.0507,2.0,339.0038817,30.00204326,-99999.0,'11111222,11111222,99999999' 
TABS,ioos:station:wmo:42044:1,2008-06-03T07:00:00Z,26.1914,-97.0507,2.0,354.0080906,31.99481208,-99999.0,'11111222,11111222,99999999' 
TABS,ioos:station:wmo:42044:1,2008-06-03T07:30:00Z,26.1914,-97.0507,2.0,352.9995829,31.99855622,-99999.0,'11111222,11111222,99999999' 
TABS,ioos:station:wmo:42044:1,2008-06-03T08:00:00Z,26.1914,-97.0507,2.0,354.0008928,30.99978226,-99999.0,'11111222,11111222,99999999' 
TABS,ioos:station:wmo:42044:1,2008-06-03T08:30:00Z,26.1914,-97.0507,2.0,358.9929946,32.99509812,-99999.0,'11111222,11111222,99999999' 
TABS,ioos:station:wmo:42044:1,2008-06-03T09:00:00Z,26.1914,-97.0507,2.0,5.994205583,33.99586151,-99999.0,'11111222,11111222,99999999' 
TABS,ioos:station:wmo:42044:1,2008-06-03T09:30:00Z,26.1914,-97.0507,2.0,12.00079018,34.00312486,-99999.0,'11111222,11111222,99999999' 
TABS,ioos:station:wmo:42044:1,2008-06-03T10:00:00Z,26.1914,-97.0507,2.0,17.00411644,28.99764301,-99999.0,'11111222,11111222,99999999' 
TABS,ioos:station:wmo:42044:1,2008-06-03T10:30:00Z,26.1914,-97.0507,2.0,17.00129174,33.99564237,-99999.0,'11111222,11111222,99999999' 
TABS,ioos:station:wmo:42044:1,2008-06-03T11:00:00Z,26.1914,-97.0507,2.0,22.99187019,32.00221242,-99999.0,'11111222,11111222,99999999' 
TABS,ioos:station:wmo:42044:1,2008-06-03T11:30:00Z,26.1914,-97.0507,2.0,31.99999848,33.00515414,-99999.0,'11111222,11111222,99999999' 
TABS,ioos:station:wmo:42044:1,2008-06-03T12:00:00Z,26.1914,-97.0507,2.0,31.99999848,33.00515414,-99999.0,'11111222,11111222,99999999' 
TABS,ioos:station:wmo:42044:1,2008-06-03T12:30:00Z,26.1914,-97.0507,2.0,32.99998344,32.00297642,-99999.0,'11111222,11111222,99999999' 
TABS,ioos:station:wmo:42044:1,2008-06-03T13:00:00Z,26.1914,-97.0507,2.0,38.99623168,29.00196717,-99999.0,'11111222,11111222,99999999' 
TABS,ioos:station:wmo:42044:1,2008-06-03T13:30:00Z,26.1914,-97.0507,2.0,38.00073532,29.99984167,-99999.0,'11111222,11111222,99999999' 
TABS,ioos:station:wmo:42044:1,2008-06-03T14:00:00Z,26.1914,-97.0507,2.0,46.99923592,29.99958666,-99999.0,'11111222,11111222,99999999' 
TABS,ioos:station:wmo:42044:1,2008-06-03T14:30:00Z,26.1914,-97.0507,2.0,45.00010523,32.99360241,-99999.0,'11111222,11111222,99999999' 
TABS,ioos:station:wmo:42044:1,2008-06-03T15:00:00Z,26.1914,-97.0507,2.0,38.99882351,33.00477844,-99999.0,'11111222,11111222,99999999' 
TABS,ioos:station:wmo:42044:1,2008-06-03T15:30:00Z,26.1914,-97.0507,2.0,41.99797229,31.99807025,-99999.0,'11111222,11111222,99999999' 
TABS,ioos:station:wmo:42044:1,2008-06-03T16:00:00Z,26.1914,-97.0507,2.0,44.00070689,30.00003333,-99999.0,'11111222,11111222,99999999' 
TABS,ioos:station:wmo:42044:1,2008-06-03T16:30:00Z,26.1914,-97.0507,2.0,44.00070689,30.00003333,-99999.0,'11111222,11111222,99999999' 
TABS,ioos:station:wmo:42044:1,2008-06-03T17:00:00Z,26.1914,-97.0507,2.0,35.99760433,30.99959355,-99999.0,'11111222,11111222,99999999' 
TABS,ioos:station:wmo:42044:1,2008-06-03T17:30:00Z,26.1914,-97.0507,2.0,22.99313522,30.0037131,-99999.0,'11111222,11111222,99999999' 
TABS,ioos:station:wmo:42044:1,2008-06-03T18:00:00Z,26.1914,-97.0507,2.0,35.00936084,29.99781659,-99999.0,'11111222,11111222,99999999' 
TABS,ioos:station:wmo:42044:1,2008-06-03T18:30:00Z,26.1914,-97.0507,2.0,27.00694593,29.00266367,-99999.0,'11111222,11111222,99999999' 
TABS,ioos:station:wmo:42044:1,2008-06-03T19:00:00Z,26.1914,-97.0507,2.0,25.99093702,29.00325844,-99999.0,'11111222,11111222,99999999' 
TABS,ioos:station:wmo:42044:1,2008-06-03T19:30:00Z,26.1914,-97.0507,2.0,17.99775333,28.99893101,-99999.0,'11111222,11111222,99999999' 
TABS,ioos:station:wmo:42044:1,2008-06-03T20:00:00Z,26.1914,-97.0507,2.0,20.99653921,30.00204326,-99999.0,'11111222,11111222,99999999' 
TABS,ioos:station:wmo:42044:1,2008-06-03T20:30:00Z,26.1914,-97.0507,2.0,35.00936084,29.99781659,-99999.0,'11111222,11111222,99999999' 
TABS,ioos:station:wmo:42044:1,2008-06-03T21:00:00Z,26.1914,-97.0507,2.0,17.99508598,27.99963214,-99999.0,'11111222,11111222,99999999' 
TABS,ioos:station:wmo:42044:1,2008-06-03T21:30:00Z,26.1914,-97.0507,2.0,20.00774586,27.99986607,-99999.0,'11111222,11111222,99999999' 
TABS,ioos:station:wmo:42044:1,2008-06-03T22:00:00Z,26.1914,-97.0507,2.0,17.99775333,28.99893101,-99999.0,'11111222,11111222,99999999' 
TABS,ioos:station:wmo:42044:1,2008-06-03T22:30:00Z,26.1914,-97.0507,2.0,14.99064262,30.00096665,-99999.0,'11111222,11111222,99999999' 
TABS,ioos:station:wmo:42044:1,2008-06-03T23:00:00Z,26.1914,-97.0507,2.0,10.99312581,28.00385152,-99999.0,'11111222,11111222,99999999' 
TABS,ioos:station:wmo:42044:1,2008-06-03T23:30:00Z,26.1914,-97.0507,2.0,11.99633116,28.00150889,-99999.0,'11111222,11111222,99999999' 
TABS,ioos:station:wmo:42044:1,2008-06-04T00:00:00Z,26.1914,-97.0507,2.0,5.009075929,25.99928653,-99999.0,'11111222,11111222,99999999' 
TABS,ioos:station:wmo:42044:1,2008-06-04T00:30:00Z,26.1914,-97.0507,2.0,359.0029425,27.00409043,-99999.0,'11111222,11144222,99999999' 
TABS,ioos:station:wmo:42044:1,2008-06-04T01:00:00Z,26.1914,-97.0507,2.0,359.0086541,26.00389394,-99999.0,'11111222,11144222,99999999' 
TABS,ioos:station:wmo:42044:1,2008-06-04T01:30:00Z,26.1914,-97.0507,2.0,358.997639,28.00428717,-99999.0,'11111222,11111222,99999999' 
TABS,ioos:station:wmo:42044:1,2008-06-04T02:00:00Z,26.1914,-97.0507,2.0,343.98927,24.00102706,-99999.0,'11111222,11111222,99999999' 
TABS,ioos:station:wmo:42044:1,2008-06-04T02:30:00Z,26.1914,-97.0507,2.0,348.0055285,31.99863278,-99999.0,'11111222,11111222,99999999' 
TABS,ioos:station:wmo:42044:1,2008-06-04T03:00:00Z,26.1914,-97.0507,2.0,356.9947314,32.99538453,-99999.0,'11111222,11111222,99999999' 
TABS,ioos:station:wmo:42044:1,2008-06-04T03:30:00Z,26.1914,-97.0507,2.0,352.9929734,35.00143568,-99999.0,'11111222,11111222,99999999' 
TABS,ioos:station:wmo:42044:1,2008-06-04T04:00:00Z,26.1914,-97.0507,2.0,346.9980459,34.00175584,-99999.0,'11111222,11111222,99999999' 
TABS,ioos:station:wmo:42044:1,2008-06-04T04:30:00Z,26.1914,-97.0507,2.0,357.0066699,35.9991236,-99999.0,'11111222,11111222,99999999' 
TABS,ioos:station:wmo:42044:1,2008-06-04T05:00:00Z,26.1914,-97.0507,2.0,357.0024883,47.99567689,-99999.0,'11111222,11111222,99999999' 
TABS,ioos:station:wmo:42044:1,2008-06-04T05:30:00Z,26.1914,-97.0507,2.0,1.994884662,52.00150959,-99999.0,'11111222,11111222,99999999' 
TABS,ioos:station:wmo:42044:1,2008-06-04T06:00:00Z,26.1914,-97.0507,2.0,346.9980459,34.00175584,-99999.0,'11111222,11111222,99999999' 
TABS,ioos:station:wmo:42044:1,2008-06-04T06:30:00Z,26.1914,-97.0507,2.0,359.0002507,50.99776662,-99999.0,'11111222,11144222,99999999' 
TABS,ioos:station:wmo:42044:1,2008-06-04T07:00:00Z,26.1914,-97.0507,2.0,2.9979326,47.99567689,-99999.0,'11111222,11111222,99999999' 
TABS,ioos:station:wmo:42044:1,2008-06-04T07:30:00Z,26.1914,-97.0507,2.0,355.9979132,48.99949796,-99999.0,'11111222,11111222,99999999' 
TABS,ioos:station:wmo:42044:1,2008-06-04T08:00:00Z,26.1914,-97.0507,2.0,356.9983814,54.99546163,-99999.0,'11111222,11111222,99999999' 
TABS,ioos:station:wmo:42044:1,2008-06-04T08:30:00Z,26.1914,-97.0507,2.0,359.0024048,57.99879482,-99999.0,'11111222,11144222,99999999' 
TABS,ioos:station:wmo:42044:1,2008-06-04T09:00:00Z,26.1914,-97.0507,2.0,358.9974719,59.99918833,-99999.0,'11111222,11111222,99999999' 
TABS,ioos:station:wmo:42044:1,2008-06-04T09:30:00Z,26.1914,-97.0507,2.0,359.0055568,52.99798581,-99999.0,'11111222,11144222,99999999' 
TABS,ioos:station:wmo:42044:1,2008-06-04T10:00:00Z,26.1914,-97.0507,2.0,358.9974824,63.99980078,-99999.0,'11111222,11111222,99999999' 
TABS,ioos:station:wmo:42044:1,2008-06-04T10:30:00Z,26.1914,-97.0507,2.0,0.000210459,63.0,-99999.0,'11111222,11111222,99999999' 
TABS,ioos:station:wmo:42044:1,2008-06-04T11:00:00Z,26.1914,-97.0507,2.0,3.00103449,68.00324772,-99999.0,'11111222,11111222,99999999' 
TABS,ioos:station:wmo:42044:1,2008-06-04T11:30:00Z,26.1914,-97.0507,2.0,1.997278586,66.00008788,-99999.0,'11111222,11111222,99999999' 
TABS,ioos:station:wmo:42044:1,2008-06-04T12:00:00Z,26.1914,-97.0507,2.0,3.00103449,68.00324772,-99999.0,'11111222,11111222,99999999' 
TABS,ioos:station:wmo:42044:1,2008-06-04T12:30:00Z,26.1914,-97.0507,2.0,3.00103449,68.00324772,-99999.0,'11111222,11111222,99999999' 
TABS,ioos:station:wmo:42044:1,2008-06-04T13:00:00Z,26.1914,-97.0507,2.0,0.000210459,70.0,-99999.0,'11111222,11111222,99999999' 
TABS,ioos:station:wmo:42044:1,2008-06-04T13:30:00Z,26.1914,-97.0507,2.0,4.999722137,69.99630633,-99999.0,'11111222,11111222,99999999' 
TABS,ioos:station:wmo:42044:1,2008-06-04T14:00:00Z,26.1914,-97.0507,2.0,2.99902595,69.00449406,-99999.0,'11111222,11111222,99999999' 
TABS,ioos:station:wmo:42044:1,2008-06-04T14:30:00Z,26.1914,-97.0507,2.0,0.000210459,68.0,-99999.0,'11111222,11111222,99999999' 
TABS,ioos:station:wmo:42044:1,2008-06-04T15:00:00Z,26.1914,-97.0507,2.0,5.003151678,67.99906249,-99999.0,'11111222,11111222,99999999' 
TABS,ioos:station:wmo:42044:1,2008-06-04T15:30:00Z,26.1914,-97.0507,2.0,5.001747756,71.00034507,-99999.0,'11111222,11111222,99999999' 
TABS,ioos:station:wmo:42044:1,2008-06-04T16:00:00Z,26.1914,-97.0507,2.0,5.996744182,64.9956437,-99999.0,'11111222,11111222,99999999' 